Forks, WA

1:53 PM PST on February 25, 2017 (GMT -0800)
Quillayute

Weather History for KUIL - December, 2012

Change the Weather History Date:

Tuesday, December 11, 2012

  Actual Average Record
Temperature  
Mean Temperature 45 °F 40 °F  
Max Temperature 48 °F 46 °F 55 °F (2014)
Min Temperature 41 °F 35 °F 20 °F (1985)
Degree Days  
Heating Degree Days 20 25  
Month to date heating degree days 267  
Since 1 July heating degree days 1981  
Cooling Degree Days 0 0  
Month to date cooling degree days 0  
Year to date cooling degree days 19  
Moisture  
Dew Point 43 °F    
Average Humidity 95    
Maximum Humidity 100    
Minimum Humidity 89    
Precipitation  
Precipitation 0.93 in 0.42 in 2.17 in (2010)
Month to date precipitation 4.91  
Year to date precipitation 91.46  
Sea Level Pressure  
Sea Level Pressure 29.68 in    
Wind  
Wind Speed 4 mph (South)    
Max Wind Speed 15 mph    
Max Gust Speed 21 mph    
Visibility 3 miles    
Events Fog , Rain    
T = Trace of Precipitation, MM = Missing Value Source: NWS Daily Summary

Daily Weather History Graph

Daily Weather History Graph

Search for Another Location

Airport or City:

Trip Planner

Search our weather history database for the weather conditions in past years. The results will help you decide how hot, cold, wet, or windy it might be!

Date:

Astronomy

Dec. 11, 2012 Rise Set
Actual Time 7:58 AM PST 4:25 PM PST
Civil Twilight 7:22 AM PST 5:01 PM PST
Nautical Twilight 6:42 AM PST 5:40 PM PST
Astronomical Twilight 6:04 AM PST 6:18 PM PST
Moon 5:56 AM PST (12/11) 3:12 PM PST (12/11)
Length of Visible Light 9h 39m
Length of Day
8h 26m
Waning Crescent, 4% of the Moon is Illuminated
Dec 11
Waning Crescent
Dec 13
New
Dec 19
First Quarter
Dec 28
Full
Jan 4
Last Quarter

Hourly Weather History & Observations

Time (PST) Temp. Windchill Dew Point Humidity Pressure Visibility Wind Dir Wind Speed Gust Speed Precip Events Conditions
12:13 AM 42.8 °F 39.3 °F 42.8 °F 100% 30.04 in 2.5 mi SSE 5.8 mph - 0.00 in Rain Light Rain
12:24 AM 42.8 °F 38.6 °F 42.8 °F 100% 30.03 in 2.5 mi SSE 6.9 mph - 0.01 in Rain Light Rain
12:44 AM 42.8 °F 40.1 °F 42.8 °F 100% 30.01 in 1.8 mi South 4.6 mph - 0.01 in Rain Light Rain
12:53 AM 43.0 °F 40.3 °F 43.0 °F 100% 30.01 in 1.5 mi Variable 4.6 mph - 0.02 in Rain Light Rain
1:08 AM 44.6 °F 41.4 °F 42.8 °F 93% 29.99 in 1.2 mi South 5.8 mph - 0.01 in Rain Light Rain
1:13 AM 44.6 °F 41.4 °F 42.8 °F 93% 29.99 in 2.0 mi Variable 5.8 mph - 0.01 in Rain Light Rain
1:23 AM 44.6 °F 42.2 °F 42.8 °F 93% 29.98 in 3.0 mi Variable 4.6 mph - 0.01 in   Overcast
1:31 AM 44.6 °F 42.2 °F 42.8 °F 93% 29.98 in 2.0 mi Variable 4.6 mph - 0.01 in Rain Light Rain
1:53 AM 44.1 °F 41.5 °F 43.0 °F 96% 29.97 in 2.5 mi SSW 4.6 mph - 0.02 in Rain Light Rain
2:20 AM 44.6 °F 40.7 °F 42.8 °F 93% 29.95 in 4.0 mi South 6.9 mph - 0.01 in   Overcast
2:37 AM 44.6 °F 40.2 °F 44.6 °F 100% 29.94 in 1.8 mi South 8.1 mph - 0.02 in Rain Light Rain
2:44 AM 44.6 °F 40.7 °F 42.8 °F 93% 29.93 in 3.0 mi SSE 6.9 mph - 0.02 in Rain Light Rain
2:53 AM 44.1 °F 40.8 °F 43.0 °F 96% 29.93 in 4.0 mi South 5.8 mph - 0.02 in   Overcast
3:44 AM 44.6 °F 40.7 °F 44.6 °F 100% 29.87 in 2.5 mi SSE 6.9 mph - 0.00 in Rain Light Rain
3:48 AM 44.6 °F 40.2 °F 44.6 °F 100% 29.88 in 1.5 mi SSW 8.1 mph - 0.00 in Rain Light Rain
3:53 AM 45.0 °F 41.8 °F 44.1 °F 97% 29.88 in 1.2 mi SSW 5.8 mph - 0.02 in Rain Light Rain
4:34 AM 44.6 °F 42.2 °F 44.6 °F 100% 29.85 in 2.0 mi Variable 4.6 mph - 0.05 in Rain Light Rain
4:50 AM 44.6 °F 41.4 °F 44.6 °F 100% 29.83 in 3.0 mi Variable 5.8 mph - 0.05 in   Overcast
4:53 AM 45.0 °F 41.8 °F 44.1 °F 97% 29.83 in 3.0 mi South 5.8 mph - 0.05 in   Overcast
5:16 AM 44.6 °F 42.2 °F 44.6 °F 100% 29.80 in 4.0 mi Variable 4.6 mph - N/A   Overcast
5:28 AM 44.6 °F 40.2 °F 42.8 °F 93% 29.78 in 4.0 mi SSE 8.1 mph - N/A   Overcast
5:45 AM 44.6 °F 40.7 °F 42.8 °F 93% 29.77 in 2.5 mi South 6.9 mph - 0.02 in Rain Light Rain
5:53 AM 44.1 °F 41.5 °F 43.0 °F 96% 29.78 in 2.0 mi South 4.6 mph - 0.03 in Rain Light Rain
6:11 AM 44.6 °F 42.2 °F 42.8 °F 93% 29.76 in 1.5 mi SSE 4.6 mph - 0.05 in Rain Rain
6:26 AM 44.6 °F 42.2 °F 42.8 °F 93% 29.75 in 2.0 mi Variable 4.6 mph - 0.09 in Rain Light Rain
6:45 AM 44.6 °F 40.2 °F 42.8 °F 93% 29.74 in 3.0 mi SE 8.1 mph - 0.11 in Rain Light Rain
6:53 AM 44.1 °F 40.1 °F 43.0 °F 96% 29.74 in 2.5 mi SSE 6.9 mph - 0.12 in Rain Light Rain
7:11 AM 44.6 °F 40.2 °F 42.8 °F 93% 29.72 in 3.0 mi South 8.1 mph - 0.01 in Rain Light Rain
7:49 AM 44.6 °F 41.4 °F 42.8 °F 93% 29.69 in 1.8 mi SSE 5.8 mph - 0.01 in Rain Light Rain
7:50 AM 44.1 °F 40.1 °F 43.0 °F 96% 29.69 in 1.8 mi SSE 6.9 mph - 0.01 in Rain Light Rain
8:21 AM 44.6 °F 39.2 °F 42.8 °F 93% 29.67 in 1.2 mi SSE 10.4 mph 18.4 mph 0.01 in Rain Light Rain
8:29 AM 44.6 °F 39.7 °F 42.8 °F 93% 29.66 in 2.0 mi SE 9.2 mph 16.1 mph 0.02 in Rain Light Rain
8:48 AM 44.6 °F 39.2 °F 42.8 °F 93% 29.66 in 1.5 mi SSE 10.4 mph 17.3 mph 0.02 in Rain Light Rain
8:53 AM 44.1 °F 39.0 °F 43.0 °F 96% 29.66 in 1.8 mi SSE 9.2 mph - 0.03 in Rain Light Rain
9:10 AM 44.6 °F 39.2 °F 42.8 °F 93% 29.64 in 1.2 mi SE 10.4 mph - 0.03 in Rain Light Rain
9:23 AM 44.6 °F 39.2 °F 42.8 °F 93% 29.63 in 1.0 mi SE 10.4 mph 20.7 mph 0.06 in Rain Light Rain
9:53 AM 45.0 °F 40.1 °F 44.1 °F 97% 29.63 in 1.0 mi SE 9.2 mph 19.6 mph 0.13 in Rain Rain
10:01 AM 44.6 °F 40.2 °F 44.6 °F 100% 29.62 in 0.5 mi SE 8.1 mph - 0.03 in Fog , Rain Rain
10:50 AM 44.6 °F - 44.6 °F 100% 29.60 in 0.8 mi Calm Calm - 0.20 in Rain Rain
10:53 AM 45.0 °F 43.5 °F 44.1 °F 97% 29.61 in 1.0 mi Variable 3.5 mph - 0.21 in Rain Rain
10:57 AM 44.6 °F - 44.6 °F 100% 29.60 in 1.2 mi Calm Calm - 0.01 in Rain Light Rain
11:02 AM 44.6 °F 42.2 °F 44.6 °F 100% 29.60 in 1.5 mi SE 4.6 mph - 0.02 in Rain Rain
11:09 AM 44.6 °F 40.7 °F 44.6 °F 100% 29.59 in 2.0 mi SE 6.9 mph - 0.03 in Rain Light Rain
11:14 AM 44.6 °F 41.4 °F 44.6 °F 100% 29.59 in 1.2 mi East 5.8 mph - 0.03 in Rain Rain
11:16 AM 44.6 °F 43.1 °F 44.6 °F 100% 29.59 in 0.8 mi Variable 3.5 mph - 0.04 in Rain Rain
11:24 AM 44.6 °F 40.7 °F 44.6 °F 100% 29.58 in 0.8 mi ESE 6.9 mph - 0.06 in Rain Rain
11:27 AM 44.6 °F 41.4 °F 44.6 °F 100% 29.59 in 1.0 mi Variable 5.8 mph - 0.07 in Rain Light Rain
11:35 AM 46.4 °F 41.5 °F 44.6 °F 93% 29.58 in 1.5 mi WNW 10.4 mph - 0.09 in Rain Light Rain
11:40 AM 46.4 °F 44.3 °F 44.6 °F 93% 29.58 in 2.0 mi Variable 4.6 mph - 0.09 in Rain Light Rain
11:53 AM 46.9 °F - 45.0 °F 93% 29.58 in 2.0 mi Calm Calm - 0.10 in Rain Light Rain
12:05 PM 46.4 °F - 44.6 °F 93% 29.58 in 4.0 mi Calm Calm - 0.00 in Rain Light Rain
12:24 PM 46.4 °F - 46.4 °F 100% 29.58 in 2.5 mi Calm Calm - 0.00 in Rain Light Rain
12:35 PM 48.2 °F - 46.4 °F 93% 29.58 in 3.0 mi Calm Calm - 0.01 in Rain Light Rain
12:45 PM 48.2 °F - 46.4 °F 93% 29.57 in 5.0 mi West 5.8 mph - 0.01 in   Overcast
12:53 PM 48.0 °F - 45.0 °F 89% 29.57 in 5.0 mi West 5.8 mph - 0.01 in   Overcast
1:38 PM 46.4 °F 42.9 °F 44.6 °F 93% 29.55 in 2.5 mi WNW 6.9 mph 16.1 mph 0.00 in Rain Light Rain
1:41 PM 46.4 °F 43.5 °F 44.6 °F 93% 29.55 in 3.0 mi WNW 5.8 mph 16.1 mph 0.00 in Rain Light Rain
1:53 PM 46.9 °F - 45.0 °F 93% 29.55 in 5.0 mi Calm Calm - 0.00 in   Overcast
2:33 PM 46.4 °F - 44.6 °F 93% 29.54 in 5.0 mi Calm Calm - N/A   Overcast
2:53 PM 46.9 °F - 44.1 °F 90% 29.54 in 4.0 mi Calm Calm - 0.00 in Rain Light Rain
3:02 PM 46.4 °F - 44.6 °F 93% 29.53 in 1.8 mi Calm Calm - 0.00 in Rain Light Rain
3:08 PM 46.4 °F 45.2 °F 44.6 °F 93% 29.53 in 0.8 mi Variable 3.5 mph - 0.00 in Rain Rain
3:11 PM 46.4 °F 42.9 °F 44.6 °F 93% 29.53 in 1.0 mi West 6.9 mph - 0.02 in Rain Light Rain
3:17 PM 46.4 °F 44.3 °F 44.6 °F 93% 29.53 in 2.0 mi WNW 4.6 mph - 0.02 in Rain Light Rain
3:20 PM 46.4 °F 45.2 °F 44.6 °F 93% 29.53 in 3.0 mi NW 3.5 mph - 0.02 in Rain Light Rain
3:53 PM 45.0 °F 42.6 °F 43.0 °F 93% 29.54 in 4.0 mi WNW 4.6 mph - 0.02 in Rain Light Rain
4:12 PM 44.6 °F 43.1 °F 42.8 °F 93% 29.54 in 2.5 mi North 3.5 mph - 0.01 in Rain Light Rain
4:18 PM 44.6 °F 42.2 °F 42.8 °F 93% 29.53 in 1.8 mi North 4.6 mph - 0.01 in Rain Light Rain
4:38 PM 44.6 °F - 42.8 °F 93% 29.54 in 1.5 mi Calm Calm - 0.03 in Rain Light Rain
4:46 PM 44.6 °F 42.2 °F 42.8 °F 93% 29.54 in 3.0 mi NW 4.6 mph - 0.04 in Rain Light Rain
4:53 PM 44.1 °F 41.5 °F 43.0 °F 96% 29.55 in 6.0 mi NW 4.6 mph - 0.04 in   Overcast
5:00 PM 44.6 °F 42.2 °F 42.8 °F 93% 29.55 in 1.8 mi West 4.6 mph - 0.01 in Rain Light Rain
5:11 PM 44.6 °F - 42.8 °F 93% 29.55 in 3.0 mi Calm Calm - 0.03 in Rain Light Rain
5:19 PM 44.6 °F - 42.8 °F 93% 29.55 in 7.0 mi Calm Calm - 0.03 in   Overcast
5:53 PM 44.1 °F - 43.0 °F 96% 29.56 in 7.0 mi Calm Calm - 0.03 in   Mostly Cloudy
6:04 PM 44.6 °F 42.2 °F 42.8 °F 93% 29.56 in 1.8 mi Variable 4.6 mph - 0.00 in Rain Light Rain
6:15 PM 42.8 °F 41.1 °F 42.8 °F 100% 29.56 in 1.2 mi Variable 3.5 mph - 0.05 in Rain Rain
6:21 PM 42.8 °F 41.1 °F 41.0 °F 93% 29.56 in 2.0 mi NNW 3.5 mph - 0.06 in Rain Light Rain
6:29 PM 42.8 °F - 41.0 °F 93% 29.56 in 7.0 mi Calm Calm - 0.06 in   Overcast
6:53 PM 43.0 °F - 42.1 °F 97% 29.57 in 7.0 mi Calm Calm - 0.06 in   Overcast
7:13 PM 42.8 °F - 41.0 °F 93% 29.57 in 6.0 mi Calm Calm - N/A   Overcast
7:40 PM 42.8 °F - 41.0 °F 93% 29.57 in 6.0 mi Calm Calm - N/A   Overcast
7:53 PM 42.1 °F - 41.0 °F 96% 29.58 in 6.0 mi Calm Calm - N/A   Overcast
8:43 PM 42.8 °F - 41.0 °F 93% 29.58 in 5.0 mi Calm Calm - 0.00 in Rain Light Rain
8:53 PM 42.1 °F 40.2 °F 41.0 °F 96% 29.58 in 5.0 mi SE 3.5 mph - 0.00 in Rain Light Rain
9:53 PM 42.1 °F - 41.0 °F 96% 29.60 in 6.0 mi Calm Calm - 0.00 in   Overcast
10:06 PM 41.0 °F - 41.0 °F 100% 29.59 in 6.0 mi Calm Calm - N/A   Overcast
10:53 PM 42.1 °F - 41.0 °F 96% 29.60 in 6.0 mi Calm Calm - 0.01 in   Overcast
11:53 PM 41.0 °F 37.1 °F 41.0 °F 100% 29.61 in 5.0 mi East 5.8 mph - 0.00 in Rain Light Rain